Regional Weather Roundup
Issued by NWS Albany, NY

Home | Current Version | Previous Version | Text Only | Print | Product List | Glossary On
Versions: 1 2 3 4 5 6 7 8 9 10 11 12 13 14 15 16 17 18 19 20 21 22 23 24 25 26 27 28 29 30 31 32 33 34 35 36 37 38 39 40 41 42 43 44 45 46 47 48 49 50
000
ASUS41 KALY 271010
RWRALY

NEW YORK STATE HOURLY WEATHER ROUNDUP
NATIONAL WEATHER SERVICE ALBANY NY
500 AM EST FRI FEB 27 2015

NOTE: "FAIR" INDICATES FEW OR NO CLOUDS BELOW 12,000 FEET WITH NO
SIGNIFICANT WEATHER AND/OR NO OBSTRUCTIONS TO VISIBILITY.

NYZ032-033-038>043-046>054-057>066-NYZ062>081-271100-
EAST


CITY           SKY/WX    TMP DP  RH WIND       PRES   REMARKS
ALBANY         PTCLDY     5  -5  63 N3        30.30R
GLENS FALLS    MOCLDY    -4 -10  75 CALM      30.30R
POUGHKEEPSIE   CLEAR      4  -3  73 CALM      30.29R
NEWBURGH       PTCLDY     7   0  72 CALM      30.26R
MONTGOMERY     MOCLDY     0  -5  79 CALM      30.25R
WHITE PLAINS   PTCLDY    13   0  56 N7        30.22R WCI   3
ISLIP          PTCLDY    20   7  57 N8        30.23R WCI  10
NEW YORK CITY  MOCLDY    20   7  57 N8        30.25R WCI  10
CENTRAL PARK   MOCLDY    20   3  48 NE5       30.27R WCI  13
$$

NYZ005>009-017-018-044>046-055-056-271100-
CENTRAL


CITY           SKY/WX    TMP DP  RH WIND       PRES   REMARKS
FULTON         CLEAR      1  -5  75 CALM      30.30R
SYRACUSE       FLURRIES -45   1 100 SE5       30.28S WCI -63
ROME           MOCLDY    -8  -9  95 CALM      30.32R
ELMIRA         PTCLDY    -2  -5  87 CALM      30.28R
BINGHAMTON     CLEAR      2  -2  83 NW5       30.18R WCI  -8
MONTICELLO     PTCLDY     7   1  78 NW5       30.18R WCI  -2
$$

NYZ026>034-041>043-271100-
NORTH


CITY           SKY/WX    TMP DP  RH WIND       PRES   REMARKS
WATERTOWN      PTCLDY   -12 -17  78 E3        30.31R
FORT DRUM      NOT AVBL
MASSENA        PTCLDY   -14 -19  79 CALM      30.32R
SARANAC LAKE   CLEAR    -18 -23  77 CALM      30.13R
PLATTSBURGH    CLEAR     -7 -12  79 CALM      30.29R
$$

NYZ001>004-010>016-019>021-271100-
WEST


CITY           SKY/WX    TMP DP  RH WIND       PRES   REMARKS
NIAGARA FALLS  CLOUDY     0  -3  87 W3        30.33R
BUFFALO        FLURRIES   5  -1  76 W5        30.32R WCI  -4
DUNKIRK        CLOUDY    -2  -5  87 SW3       30.36R
JAMESTOWN      MOCLDY     1  -2  85 N8        30.21R WCI -12
WELLSVILLE     MOCLDY     0  -4  83 NW5       30.18R WCI -10
ROCHESTER      CLEAR      3  -1  83 W7        30.31R WCI  -9
PENN YAN       CLEAR      5   0  79 SW6       30.27R WCI  -6
$$

             KEY
       WCI = WIND CHILL INDEX
       VSB = VISIBILITY
       HX  = HEAT INDEX
$$


USA.gov is the U.S. government's official web portal to all federal, state and local government web resources and services.